Regional Weather Roundup
Issued by NWS Wakefield, VA

Home | Current Version | Previous Version | Text Only | Print | Product List | Glossary On
Versions: 1 2 3 4 5 6 7 8 9 10 11 12 13 14 15 16 17 18 19 20 21 22 23 24 25 26 27
000
ASUS41 KAKQ 080615
RWRAKQ

REGIONAL WEATHER ROUNDUP
NATIONAL WEATHER SERVICE WAKEFIELD VA
100 AM EST THU DEC 08 2016

Note: "fair" indicates few or no clouds below 12,000 feet with no
significant weather and/or obstructions to visibility. * = Denotes
station may not report precipitation (e.g., rain,snow,etc.),
thunder or fog.

VAZ042-051-052>054-056-080700-
NORTHERN VIRGINIA

CITY           SKY/WX    TMP DP  RH WIND       PRES   REMARKS
WASH NATIONAL  MOCLDY    38  34  85 SW3       30.07F
DULLES         PTCLDY    30  27  88 CALM      30.07S
FORT BELVOIR   PTCLDY    30  29  94 CALM      30.06F
QUANTICO       PTCLDY    33  31  92 NW7       30.08F
FREDERICKSBRG* PTCLDY    32  32 100 CALM      30.06S
STAFFORD*      PTCLDY    29  29 100 CALM      30.10S
WARRENTON      MOCLDY    29  26  86 CALM      30.06S
CULPEPER*      CLOUDY    31  30  99 CALM      30.07F
MANASSAS*        N/A    N/A N/A N/A MISG        N/A
LEESBURG*      CLOUDY    32  32 100 MISG      30.07S
WINCHESTER     PTCLDY    28  25  86 NW3       30.05S
FRONT ROYAL*   FAIR      30  30 100 CALM      30.05R
LURAY*         FAIR      32  32 100 CALM      30.04S
$$

VAZ048-049-060>072-079>083-080700-
CENTRAL AND SOUTH CENTRAL VIRGINIA

CITY           SKY/WX    TMP DP  RH WIND       PRES   REMARKS
RICHMOND       CLOUDY    37  34  89 SW5       30.05F
CHESTERFIELD*  FAIR      37  21  52 CALM      30.07F
PETERSBURG*    MOCLDY    35  34  96 CALM      30.07F
HANOVER        PTCLDY    35  33  92 CALM      30.07F
TAPPAHANNOCK*  PTCLDY    33  33 100 CALM      30.07S
QUINTON*       FAIR      35  34  98 MISG      30.05F
CHARLOTTSVILLE PTCLDY    37  32  82 N3        30.03F
GORDONSVILLE*  MOCLDY    32  32  99 CALM      30.04F
ORANGE*          N/A     32  32 100 CALM      30.06F
LOUISA*        PTCLDY    34  34 100 CALM      30.03F
BUMPASS*       FAIR      32  32 100 CALM      30.05S
FARMVILLE*     CLOUDY    37  37 100 CALM      30.03F
CREWE*         FAIR      40  40 100 SE5       30.05F
FORT PICKETT*  FAIR      41  38  87 SE5       30.05F
CHASE CITY*    MOCLDY    38  37  94 CALM      30.04F
CLARKSVILLE*   CLOUDY    43  43 100 CALM      30.04F
SOUTH HILL*    CLOUDY    42  42 100 CALM      30.12S
LAWRENCEVILLE* FAIR      43  41  94 MISG      30.06F
EMPORIA*       PTCLDY    37  37 100 CALM      30.09S
$$

VAZ088>098-080700-
SOUTHEAST VIRGINIA

CITY           SKY/WX    TMP DP  RH WIND       PRES   REMARKS
NORFOLK        CLEAR     39  37  92 SW3       30.07F
VIRGINIA BEACH PTCLDY    36  34  92 CALM      30.06F
NORFOLK NAVAL  MOCLDY    38  37  97 CALM      30.08F
WEST POINT*    PTCLDY    33  32  97 CALM      30.08F
SALUDA*        FAIR      34  34 100 CALM      30.06F
NEWPORT NEWS   FOG       35  34  96 CALM      30.07S VSB 1/2
LANGLEY AFB    PTCLDY    38  37  99 CALM      30.06F
FORT EUSTIS    PTCLDY    38  35  90 CALM      30.04F
WILLIAMSBURG*  PTCLDY    39  39 100 CALM      30.07F
HR EXEC AP*    FAIR      30  28  93 CALM      30.07S
FRANKLIN*      CLOUDY    41  40  95 CALM      30.08F
US460-WAKEFLD  PTCLDY    38  37  97 CALM      30.07F FOG
$$

VAZ020-022-025-037-045-080700-
WEST CENTRAL AND SOUTHWEST VIRGINIA

CITY           SKY/WX    TMP DP  RH WIND       PRES   REMARKS
STAUNTON*      PTCLDY    29  28  96 CALM      30.05S
WAYNESBORO*    FAIR      32  30  94 CALM      30.01F
HOT SPRINGS VA MOCLDY    34  10  37 W12       29.97R
LYNCHBURG      CLOUDY    35  33  92 CALM      30.04F
DANVILLE       PTCLDY    37  37 100 CALM      30.03F
SOUTH BOSTON*  FAIR      34  33  96 CALM      30.03F
MARTINSVILLE   MOCLDY    32  32  99 NW3       30.06S
ROANOKE        MOCLDY    38  33  82 CALM      30.05F
BLACKSBURG     CLOUDY    36  32  85 CALM      30.06S
DUBLIN*        CLOUDY    38  33  82 NW3       30.05S
MARION*        CLOUDY    35  32  88 W6        30.07R
HILLSVILLE*    CLOUDY    38  32  78 CALM      30.01S
RICHLANDS*     CLOUDY    33  28  82 CALM      30.07F
WISE*          CLOUDY    36  28  75 CALM      30.07F
ABINGDON*      CLOUDY    38  32  79 CALM      30.07R
$$

MDZ021>025-VAZ099-100-080700-
SOUTHERN MARYLAND AND THE DELMARVA PENINSULA

CITY           SKY/WX    TMP DP  RH WIND       PRES   REMARKS
PATUXENT RIVER CLOUDY    33  31  92 SW5       30.05F
BAY BRIDGE APT CLEAR     34  34 100 CALM      30.06F FOG
LEONARDTOWN    PTCLDY    32  32 100 CALM      30.06F
DOVER          PTCLDY    32  32 100 CALM      30.04S
GEORGETOWN     CLEAR     33  31  92 CALM      30.06F FOG
EASTON         CLEAR     34  32  93 CALM      30.08F FOG
CAMBRIDGE      CLEAR     32  30  93 CALM      30.05F
SALISBURY      PTCLDY    31  29  92 CALM      30.06F
OCEAN CITY     CLEAR     34  33  96 CALM      30.06F FOG
WALLOPS ISLAND CLEAR     33  33 100 CALM      30.07F
ACCOMACK*      PTCLDY    34  33  98 CALM      30.06F
$$

NCZ012>017-030>032-080700-
NORTH CENTRAL AND EASTERN NORTH CAROLINA

CITY           SKY/WX    TMP DP  RH WIND       PRES   REMARKS
ROANOKE RAPIDS CLOUDY    45  43  93 CALM      30.07F
RALEIGH        MOCLDY    50  44  80 CALM      30.05F
ELIZABETH CITY CLOUDY    39  39 100 CALM      30.08F
AHOSKIE*       NOT AVBL
EDENTON*       CLOUDY    44  42  93 CALM      30.09F
CURRITUCK*     CLOUDY    40  40 100 CALM      30.08F FOG
KILL DEVIL HLS CLOUDY    46  46 100 CALM      30.07S
MANTEO         CLOUDY    40  40 100 CALM      30.09S
CAPE HATTERAS  NOT AVBL
TARBORO*       NOT AVBL
GOLDSBORO      CLOUDY    49  49  99 SE5       30.04F
WASHINGTON       N/A     42  41  97 CALM      30.09F
GREENVILLE     CLOUDY    43  43 100 CALM      30.09F
NEW BERN       CLOUDY    46  44  93 CALM      30.09F
WILMINGTON     CLOUDY    43  43 100 CALM      30.07F
$$

VAZ048-080700-
ELSEWHERE

CITY           SKY/WX    TMP DP  RH WIND       PRES   REMARKS
HARRISBURG PA  CLOUDY    38  21  50 CALM      30.03S
BALTIMORE      MOCLDY    31  30  96 W3        30.05F
ANNAPOLIS      CLEAR     37  33  85 CALM      30.05F
ANDREWS AFB    CLEAR     33  29  88 CALM      30.05F
PHILADELPHIA   CLOUDY    36  33  89 W6        30.04F
HENDERSON NC   CLOUDY    45  40  84 CALM      30.05F
GREENSBORO     CLOUDY    45  41  86 S6        30.01F
ROCKY MOUNT    CLOUDY    45  45 100 SE3       30.06F
$$

VAZ100-080700-
MARINE

STATION/POSITION TIME  TEMP    WIND        PRES    WAVE   SWELL
                       AIR SEA DIR/SP/G            HT/PER HT/PER
                 (UTC) (F)     (DEG/KT/KT) (MB)    (FT/S) (FT/S)
BRANDYWINE LGT   0542          260/  6/  7   N/A
CAPE MAY NJ      0548      48  250/  7/  8 1017.0F
LEWES DE         0548      49  220/  5/  6 1017.5F
OCEAN-CITY-INLET 0548      50  280/  4/  4 1018.1F
WACHAPREAGUE VA  0542      49  270/  3/  4 1018.2F
GOOSES REEF MD   0550   47     220/  6/  6 1018.3F
COVE POINT MD    0542          240/  3/  4 1018.3F
SOLOMONS ISLAND  0548      50  330/  2/  2   N/A
BISHOPS HEAD MD  0548      47  200/  4/  4 1017.9F
PINEY POINT MD   0542          180/  2/  3   N/A
POTOMAC MD       0550   46     220/  6/  6 1016.9F
CAMBRIDGE MD     0548      47   CALM  /  1 1017.1F
LEWISETTA VA     0542      49  220/  2/  3 1017.5F
RAPPAHANNOCK LGT 0542          150/  5/  5 1018.5F
STINGRAY PT      0550   46     230/  6/  8 1018.4F
YORK RVR RNG VA  0542          200/  6/  7 1017.8F
YORKTOWN VA      0542      51  170/  3/  4 1017.8F
JAMESTOWN VA     0550   44     160/  4/  6   N/A
DOMINION TERM VA 0542          160/  5/  6 1018.3F
KIPTOPEKE VA     0542      52   CALM  /  1   N/A
CHES BAY BRIDGE  0542      52  220/  4/  5 1018.1F
CAPE HENRY VA    0542          210/  3/  4   N/A
WILLOUBY STN VA  0542          190/  6/  6 1019.0F
S CRANEY ISL VA  0542          200/  1/  4 1018.3F
CAPE HENRY BUOY  0542      54                N/A     4/ 9   2/12
CAPE CHARLES BUO 0556      54                N/A     4/ 9   2/11
OFFSHORE WE BUOY 0551      56                N/A     5/11   2/11
DUCK PIER NC     0542      54  320/  3/  3 1018.0F
44100 DUCK FRF   0535      55                N/A     5/ 9   2/11
OREGON INLET NC  0542      56  280/  5/  6 1018.5F
HATTERAS NC      0542      60  330/  6/  7 1018.4R
$$




USA.gov is the U.S. government's official web portal to all federal, state and local government web resources and services.